CZ-6A DEB

Satellite information

Favourite Embed

Satellite Type and Status

DEBRISIN ORBIT

Key statistics

Satellite CZ-6A DEB at a glance.

Uptime

1129

Days in orbit

Revolutions

≈ 14.1

Per day

Orbit

SSO

Sun Synchronous Orbit

Inclination

98.9

Latest

Satellite identification and parameters

Extended collection of information and parameters for CZ-6A DEB.

Object identification

Identified? True

Debris? True

Object name: CZ-6A DEB

International designator: 2022-151TK

Object number (NORAD): 54970

Object ID (CCSDS): 54970

Country: PEOPLES REPUBLIC OF CHINA (PRC)

Current information (Y/N): Y

RCS size: MEDIUM

Orbital parameters

Period: 102.365 minutes

Inclination: 98.8571 deg

SMA: 7248.721 km

Apoapsis: 918.941 km

Periapsis: 822.231 km

RAAN: 338.5978 deg

Eccentricy: 0.00667086

Argument of periapsis: 169.5003 deg

Mean anomaly: 190.7576 deg

Mean motion: 14.06729753 rev/day

Mean motion (dot): 0.00001402 rev/day2

B* drag term: 0.00085267121 1/REarth

Two-line elements (TLE)

Creation date: Dec. 14, 2025, 3:07 a.m.

Reference frame: TEME

Reference center: EARTH

Epoch: Dec. 13, 2025, 11:34 a.m. UTC

TLE line 0: 0 CZ-6A DEB

TLE line 1: 1 54970U 22151TK 25347.48197404 .00001402 00000-0 85267-3 0 9992

TLE line 2: 2 54970 98.8571 338.5978 0066709 169.5003 190.7576 14.06729753158069

Live tracking on map

Real-time ground track for satellite CZ-6A DEB.

In-orbit conjunctions

There are no conjunctions computed for CZ-6A DEB, at the moment. Check back to stay up to date, as we update our databases every day.

Go to all conjunctions

Associated space launch

Chinese satellite reported for atmospheric/ocean/environmental/spatial parameter research purposes, details TBD.

CZ-6A DEB was lifted into orbit during the mission ‘Long March 6A | Yunhai 3’, on board a Long March 6A space rocket.

The launch took place on Nov. 11, 2022, 10:52 p.m. from Launch Complex 9A.

For more information about the launch, click the button.

Launch to space Long March 6A | Yunhai 3
Long March 6A | Yunhai 3

Agency: N/A

Status: Launch Successful

Launch date: Nov. 11, 2022, 10:52 p.m. UTC

Rocket: Long March 6A

Launch pad: Launch Complex 9A

Location: Taiyuan Satellite Launch Center, People's Republic of China

...

Latest news about this satellite

There are no fresh news available about this satellite. Check back as we update our databases every day.


Newsletter sign-up

Weekly statistics, charts and insights to help you stay on top of the space industry.